GONETS-M 18 (46487 NORAD) Tracking and Keplerian Element Data
This shows tracking and keplerian element data for the satellite.
Feedback or suggestion? Click here.
Element | Value |
Catalog | 46487 |
Name | GONETS-M 18 |
Epoch Orbit | 1497 |
Epoch Day | 27.06970917 |
Epoch Year | 2021 |
RAAN | 131.1271 |
Inclination | 82.4944 |
Eccentricity | 0.0020133 |
Argument of Perigee | 6.3043 |
Mean Anonmoly | 353.827 |
Mean Motion | 12.42817116 |
Decay Rate | 3.2E-07 |
L1 | 1 46487U 20068B 21027.06970917 .00000032 00000-0 16232-3 0 9998 |
L2 | 2 46487 82.4944 131.1271 0020133 6.3043 353.8270 12.42817116 14975 |
Live tracking and technical data element details for GONETS-M 18 (NORAD 46487). GONETS-M 18 can be tracked NOW for your location showing map with azimuth and elevation plus other details from your city location.
Track the satellite on the map from your city or location and see movement details for azimuth, elevation, latitude, longitude, range, height, and movement on the map or in text.
IsCatalogInMostPopularTable: catalog: 46487, numindb: 42
Update: records affected: 1
GetName: 46487 GONETS-M 18
Hit Count: updated at: Thu, 28 Jan 2021 11:50:04 GMT